TimeMDT,TemperatureF,Dew PointF,Humidity,Sea Level PressureIn,VisibilityMPH,Wind Direction,Wind SpeedMPH,Gust SpeedMPH,PrecipitationIn,Events,Conditions,WindDirDegrees,DateUTC
1:52 AM,53.1,37.0,55,29.62,10.0,North,4.6,-,N/A,,Clear,350,2012-10-21 07:52:00
2:52 AM,52.0,37.0,57,29.65,10.0,North,9.2,-,N/A,,Clear,360,2012-10-21 08:52:00
4:52 AM,48.9,39.9,71,29.71,10.0,North,8.1,-,N/A,,Clear,10,2012-10-21 10:52:00
5:52 AM,46.9,39.9,77,29.77,10.0,North,9.2,-,N/A,,Clear,10,2012-10-21 11:52:00
7:06 AM,44.6,37.4,76,29.85,10.0,North,10.4,19.6,N/A,,Mostly Cloudy,350,2012-10-21 13:06:00
7:50 AM,44.6,37.4,76,29.86,10.0,North,9.2,-,N/A,,Scattered Clouds,350,2012-10-21 13:50:00
7:52 AM,45.0,37.9,76,29.86,10.0,North,10.4,16.1,N/A,,Scattered Clouds,360,2012-10-21 13:52:00
8:27 AM,46.4,37.4,71,29.87,10.0,North,11.5,-,N/A,,Mostly Cloudy,360,2012-10-21 14:27:00
9:18 AM,50.0,37.4,62,29.89,10.0,North,16.1,23.0,N/A,,Scattered Clouds,10,2012-10-21 15:18:00
9:52 AM,51.1,37.0,59,29.89,10.0,North,15.0,-,N/A,,Clear,360,2012-10-21 15:52:00
11:52 AM,55.9,36.0,47,29.87,10.0,NNE,8.1,-,N/A,,Clear,20,2012-10-21 17:52:00
12:52 PM,59.0,37.0,44,29.84,10.0,NE,9.2,-,N/A,,Clear,50,2012-10-21 18:52:00
1:52 PM,60.1,37.0,42,29.84,10.0,ENE,10.4,-,N/A,,Clear,60,2012-10-21 19:52:00
2:52 PM,61.0,37.0,41,29.83,10.0,NE,11.5,-,N/A,,Clear,40,2012-10-21 20:52:00
3:52 PM,62.1,36.0,38,29.84,10.0,ENE,11.5,-,N/A,,Clear,60,2012-10-21 21:52:00
4:52 PM,60.1,37.0,42,29.86,10.0,ENE,10.4,-,N/A,,Clear,60,2012-10-21 22:52:00
5:52 PM,55.0,36.0,49,29.89,10.0,NNE,8.1,-,N/A,,Clear,30,2012-10-21 23:52:00
6:52 PM,50.0,36.0,59,29.93,10.0,NNE,10.4,-,N/A,,Clear,20,2012-10-22 00:52:00
7:52 PM,46.9,37.0,68,29.96,10.0,East,4.6,-,N/A,,Overcast,100,2012-10-22 01:52:00
8:52 PM,39.9,34.0,79,29.97,10.0,East,5.8,-,N/A,,Clear,90,2012-10-22 02:52:00
9:52 PM,37.9,33.1,83,29.98,10.0,Calm,Calm,-,N/A,,Clear,0,2012-10-22 03:52:00
10:52 PM,42.1,37.0,82,29.98,10.0,Calm,Calm,-,N/A,,Overcast,0,2012-10-22 04:52:00
11:36 PM,44.6,37.4,76,29.98,10.0,ENE,5.8,-,N/A,,Overcast,70,2012-10-22 05:36:00
11:52 PM,45.0,37.0,74,29.98,10.0,East,5.8,-,N/A,,Overcast,80,2012-10-22 05:52:00